Location: *
(51.8167°N, 12.5000°E)
Time: 16:34:14
(UTC+00:00)

Cosmos 1461 - Pass Details

Date: 16 September 2019
Orbit: 525 x 643 km, 65.0° (Epoch: 22 October)

Event Time Altitude Azimuth Distance (km) Brightness Sun altitude
Rises 19:35:53 0° 232° (SW) 2,678 6.6 -20.1°
Reaches altitude 10° 19:38:07 10° 237° (WSW) 1,780 5.7 -20.4°
Maximum altitude 19:42:01 56° 316° (NW) 631 3.4 -20.9°
Drops below altitude 10° 19:45:56 10° 36° (NE) 1,777 5.4 -21.4°
Sets 19:48:09 0° 41° (NE) 2,672 6.3 -21.7°
